When you browse on this site, cookies collect data to enhance your experience and personalize the content and advertising you see.
Visit our Privacy Policy to learn more. By continuing to use the site, you agree to this use of cookies and data.
  • In Hungary
  • List of Countries
  • For 7 days
  • Water Temperature
  • Satellite Maps
  • Weather Map
  • News
  • Weather Widgets
  • user-avatar
    Login

    Hourly Weather Emona

    Today, 17 November, Saturday

    Time Temperature Precipitation Wind Pressure Humidity
    00:00 0°C° 0 mm 5 mps 771 mmHg 79%
    01:00 0°C° 0 mm 5 mps 771 mmHg 80%
    02:00 -1°C° 0 mm 5 mps 771 mmHg 77%
    03:00 -1°C° 0 mm 4 mps 771 mmHg 77%
    04:00 -1°C° 0 mm 4 mps 771 mmHg 78%
    05:00 -1°C° 0 mm 4 mps 771 mmHg 78%
    06:00 -1°C° 0 mm 4 mps 771 mmHg 79%
    07:00 -1°C° 0 mm 4 mps 771 mmHg 79%
    08:00 -1°C° 0 mm 4 mps 771 mmHg 79%
    09:00 0°C° 0 mm 4 mps 771 mmHg 75%
    10:00 +3°C° 0 mm 4 mps 771 mmHg 71%
    11:00 +4°C° 0 mm 4 mps 771 mmHg 66%
    12:00 +5°C° 0 mm 5 mps 771 mmHg 66%
    13:00 +5°C° 0 mm 5 mps 770 mmHg 65%
    14:00 +6°C° 0 mm 5 mps 770 mmHg 64%
    15:00 +5°C° 0 mm 5 mps 770 mmHg 68%
    16:00 +5°C° 0 mm 5 mps 770 mmHg 73%
    17:00 +3°C° 0 mm 6 mps 770 mmHg 77%
    18:00 +3°C° 0 mm 5 mps 770 mmHg 79%
    19:00 +3°C° 0 mm 5 mps 770 mmHg 81%
    20:00 +3°C° 0 mm 5 mps 770 mmHg 83%
    21:00 +3°C° 0.1 mm 5 mps 770 mmHg 84%
    22:00 +3°C° 0.1 mm 5 mps 769 mmHg 85%
    23:00 +4°C° 0.1 mm 4 mps 769 mmHg 86%

    Tomorrow, 18 November, Sunday

    Time Temperature Precipitation Wind Pressure Humidity
    00:00 +3°C° 0.2 mm 5 mps 769 mmHg 86%
    01:00 +3°C° 0.2 mm 5 mps 769 mmHg 87%
    02:00 +3°C° 0.2 mm 5 mps 769 mmHg 88%
    03:00 +3°C° 0.2 mm 5 mps 769 mmHg 88%
    04:00 +5°C° 0.2 mm 5 mps 768 mmHg 88%
    05:00 +4°C° 0.2 mm 6 mps 768 mmHg 88%
    06:00 +4°C° 0.2 mm 6 mps 768 mmHg 88%
    07:00 +5°C° 0.2 mm 6 mps 768 mmHg 88%
    08:00 +5°C° 0.2 mm 6 mps 768 mmHg 88%
    09:00 +7°C° 0.1 mm 6 mps 767 mmHg 86%
    10:00 +7°C° 0.1 mm 6 mps 767 mmHg 84%
    11:00 +8°C° 0.1 mm 6 mps 767 mmHg 82%
    12:00 +8°C° 0.1 mm 6 mps 766 mmHg 82%
    13:00 +9°C° 0.1 mm 6 mps 766 mmHg 82%
    14:00 +9°C° 0.1 mm 6 mps 765 mmHg 82%
    15:00 +9°C° 0.1 mm 7 mps 764 mmHg 83%
    16:00 +9°C° 0.1 mm 7 mps 764 mmHg 84%
    17:00 +9°C° 0.1 mm 7 mps 763 mmHg 85%
    18:00 +9°C° 0.6 mm 7 mps 763 mmHg 86%
    19:00 +7°C° 0.6 mm 8 mps 762 mmHg 86%
    20:00 +7°C° 0.6 mm 8 mps 762 mmHg 87%
    21:00 +7°C° 1.1 mm 8 mps 761 mmHg 88%
    22:00 +7°C° 1.1 mm 8 mps 761 mmHg 89%
    23:00 +9°C° 1.1 mm 8 mps 760 mmHg 90%

    Day after tomorrow, 19 November, Monday

    Time Temperature Precipitation Wind Pressure Humidity
    00:00 +9°C° 1.5 mm 8 mps 759 mmHg 90%
    01:00 +9°C° 1.5 mm 8 mps 759 mmHg 91%
    02:00 +9°C° 1.5 mm 8 mps 758 mmHg 92%
    03:00 +9°C° 2.6 mm 7 mps 757 mmHg 93%
    04:00 +9°C° 2.6 mm 6 mps 756 mmHg 94%
    05:00 +9°C° 2.6 mm 6 mps 756 mmHg 95%
    06:00 +9°C° 2.4 mm 5 mps 756 mmHg 94%
    07:00 +11°C° 2.4 mm 4 mps 756 mmHg 94%
    08:00 +11°C° 2.4 mm 3 mps 756 mmHg 93%
    09:00 +11°C° 0.1 mm 4 mps 756 mmHg 90%
    10:00 +11°C° 0.1 mm 4 mps 756 mmHg 86%
    11:00 +12°C° 0.1 mm 5 mps 757 mmHg 83%
    12:00 +12°C° 0 mm 5 mps 757 mmHg 80%
    13:00 +12°C° 0 mm 5 mps 757 mmHg 77%
    14:00 +12°C° 0 mm 5 mps 758 mmHg 73%
    15:00 +10°C° 0 mm 5 mps 758 mmHg 76%
    16:00 +9°C° 0 mm 5 mps 759 mmHg 79%
    17:00 +8°C° 0 mm 4 mps 760 mmHg 82%
    18:00 +8°C° 0 mm 4 mps 760 mmHg 84%
    19:00 +7°C° 0 mm 4 mps 761 mmHg 85%
    20:00 +7°C° 0 mm 3 mps 762 mmHg 87%
    21:00 +7°C° 0 mm 3 mps 763 mmHg 87%
    22:00 +7°C° 0 mm 3 mps 763 mmHg 88%
    23:00 +5°C° 0 mm 3 mps 764 mmHg 88%

    20 November, Tuesday

    Time Temperature Precipitation Wind Pressure Humidity
    00:00 +5°C° 0 mm 3 mps 764 mmHg 88%
    01:00 +6°C° 0 mm 2 mps 764 mmHg 88%
    02:00 +6°C° 0 mm 2 mps 764 mmHg 88%
    03:00 +6°C° 0 mm 2 mps 764 mmHg 89%
    04:00 +6°C° 0 mm 2 mps 764 mmHg 89%
    05:00 +6°C° 0 mm 2 mps 764 mmHg 89%
    06:00 +5°C° 0 mm 3 mps 765 mmHg 89%
    07:00 +7°C° 0 mm 3 mps 765 mmHg 89%
    08:00 +7°C° 0 mm 3 mps 765 mmHg 89%
    09:00 +7°C° 0 mm 4 mps 765 mmHg 89%
    10:00 +8°C° 0 mm 4 mps 765 mmHg 90%
    11:00 +8°C° 0 mm 4 mps 765 mmHg 90%
    12:00 +10°C° 0 mm 4 mps 764 mmHg 89%
    13:00 +11°C° 0 mm 4 mps 764 mmHg 89%
    14:00 +12°C° 0 mm 4 mps 763 mmHg 88%
    15:00 +12°C° 0 mm 4 mps 763 mmHg 91%
    16:00 +12°C° 0 mm 4 mps 762 mmHg 93%
    17:00 +12°C° 0 mm 4 mps 762 mmHg 95%
    18:00 +12°C° 0.2 mm 4 mps 762 mmHg 95%
    19:00 +13°C° 0.2 mm 4 mps 762 mmHg 95%
    20:00 +13°C° 0.2 mm 4 mps 762 mmHg 95%
    21:00 +13°C° 0.2 mm 4 mps 761 mmHg 93%
    22:00 +13°C° 0.2 mm 4 mps 761 mmHg 92%
    23:00 +14°C° 0.2 mm 4 mps 760 mmHg 90%

    21 November, Wednesday

    Time Temperature Precipitation Wind Pressure Humidity
    00:00 +14°C° 0.4 mm 4 mps 760 mmHg 90%
    01:00 +14°C° 0.4 mm 3 mps 759 mmHg 89%
    02:00 +14°C° 0.4 mm 3 mps 759 mmHg 88%
    03:00 +14°C° 0.5 mm 3 mps 758 mmHg 89%
    04:00 +14°C° 0.5 mm 4 mps 758 mmHg 90%
    05:00 +15°C° 0.5 mm 4 mps 758 mmHg 91%
    06:00 +15°C° 0.5 mm 4 mps 758 mmHg 91%
    07:00 +15°C° 0.5 mm 5 mps 758 mmHg 91%
    08:00 +15°C° 0.5 mm 5 mps 758 mmHg 91%
    09:00 +16°C° 0.2 mm 5 mps 758 mmHg 88%
    10:00 +18°C° 0.2 mm 4 mps 758 mmHg 84%
    11:00 +18°C° 0.2 mm 4 mps 758 mmHg 81%
    12:00 +19°C° 0.1 mm 4 mps 758 mmHg 76%
    13:00 +19°C° 0.1 mm 3 mps 758 mmHg 72%
    14:00 +19°C° 0.1 mm 3 mps 758 mmHg 68%
    15:00 +18°C° 0 mm 3 mps 758 mmHg 72%
    16:00 +17°C° 0 mm 3 mps 759 mmHg 76%
    17:00 +16°C° 0 mm 3 mps 759 mmHg 81%
    18:00 +14°C° 0 mm 3 mps 759 mmHg 83%
    19:00 +13°C° 0 mm 3 mps 760 mmHg 86%
    20:00 +13°C° 0 mm 3 mps 760 mmHg 88%
    21:00 +12°C° 0 mm 3 mps 761 mmHg 89%
    22:00 +12°C° 0 mm 3 mps 761 mmHg 90%
    23:00 +11°C° 0 mm 3 mps 762 mmHg 91%

    22 November, Thursday

    Time Temperature Precipitation Wind Pressure Humidity
    00:00 +11°C° 0 mm 3 mps 762 mmHg 91%
    01:00 +10°C° 0 mm 3 mps 762 mmHg 91%
    02:00 +10°C° 0 mm 4 mps 763 mmHg 92%
    03:00 +10°C° 0 mm 4 mps 763 mmHg 92%
    04:00 +10°C° 0 mm 4 mps 763 mmHg 92%
    05:00 +8°C° 0 mm 4 mps 764 mmHg 92%
    06:00 +8°C° 0 mm 4 mps 764 mmHg 91%
    07:00 +8°C° 0 mm 4 mps 764 mmHg 90%
    08:00 +8°C° 0 mm 4 mps 765 mmHg 89%
    09:00 +8°C° 0 mm 4 mps 765 mmHg 84%
    10:00 +10°C° 0 mm 4 mps 766 mmHg 80%
    11:00 +10°C° 0 mm 4 mps 766 mmHg 76%
    12:00 +10°C° 0 mm 4 mps 766 mmHg 75%
    13:00 +10°C° 0 mm 4 mps 766 mmHg 74%
    14:00 +11°C° 0 mm 4 mps 766 mmHg 73%
    15:00 +10°C° 0 mm 4 mps 766 mmHg 75%
    16:00 +9°C° 0 mm 5 mps 766 mmHg 76%
    17:00 +8°C° 0 mm 5 mps 767 mmHg 78%
    18:00 +8°C° 0 mm 5 mps 767 mmHg 79%
    19:00 +7°C° 0 mm 5 mps 767 mmHg 80%
    20:00 +7°C° 0 mm 5 mps 768 mmHg 81%
    21:00 +7°C° 0 mm 5 mps 768 mmHg 82%
    22:00 +6°C° 0 mm 5 mps 768 mmHg 83%
    23:00 +6°C° 0 mm 5 mps 769 mmHg 84%
    Show more